Tracking 20241 objects as of 26-Jan-2020
HD Live streaming from Space Station
objects crossing your sky now

LEMUR 2 ANGELA

Track LEMUR 2 ANGELA now!
10-day predictions
LEMUR 2 ANGELA is classified as:


NORAD ID: 42752
Int'l Code: 2017-019B
Perigee: 472.8 km
Apogee: 486.8 km
Inclination: 51.6 °
Period: 94.1 minutes
Semi major axis: 6850 km
RCS: Unknown
Launch date: April 18, 2017
Source: United States (US)
Launch site: AIR FORCE EASTERN TEST RANGE (AFETR)
aabbcc
Your satellite tracking list
Your tracking list is empty




NASA's NSSDC Master Catalog

Two Line Element Set (TLE):
1 42752U 17019B   20025.81711520  .00001184  00000-0  50938-4 0  9995
2 42752  51.6406 145.4881 0010225 150.2834 209.8730 15.31056507147080
Source of the keplerian elements: AFSPC